Location: Middle Street
(51.7167°N, 0.0333°E)
Time: 02:00:01
(UTC+00:00)

USA 281 - Pass Details

Date: 20 January 2021
Orbit: 1072 x 1086 km, 106.0° (Epoch: 26 February)

Event Time Altitude Azimuth Distance (km) Brightness Sun altitude
Exits shadow 19:43:21 44° 18° (NNE) 1,478 3.7 -29.7°
Drops below altitude 10° 19:48:20 10° 339° (NNW) 2,942 5.8 -30.5°
Sets 19:50:56 0° 335° (NNW) 3,900 6.5 -30.9°
